Location: Mahannah Oil Field
(37.4664°N, 96.6003°W)
Time: 15:51:49
(UTC+00:00)

X-37B - Pass Details

Date: 30 November 2020
Orbit: 384 x 390 km, 45.0° (Epoch: 02 January)

Event Time Altitude Azimuth Distance (km) Brightness Sun altitude
Rises 01:27:00 0° 282° (WNW) 2,263 5.6 -26.9°
Reaches altitude 10° 01:29:22 10° 299° (WNW) 1,411 4.1 -27.4°
Enters shadow 01:29:49 12° 304° (NW) 1,274 3.7 -27.5°
